< < Back
Terminal Aerodrome Forecast


Current Version              Previous Versions:   1  2  3  4  5  6  7  8  9  

Terminal Aerodrome Forecast

637
FTUS42 KGSP 232200 AAB
TAFCLT
TAF AMD
KCLT 232214Z 2322/2418 23007KT P6SM VCSH SCT040
      TEMPO 2322/2324 30010G20KT TSRA BKN035CB
     FM240000 23005KT P6SM SCT060
     FM241500 23004KT P6SM BKN080 PROB30 2416/2418 4SM TSRA
      BKN040CB=

Latest METAR

616
SAUS70 KWBC 240800 RRC
MTRCLT
METAR KCLT 240752Z 00000KT 10SM FEW075 OVC100 22/21 A2993 RMK AO2 SLP123
T02220206


USA.gov is the U.S. government's official web portal to all federal, state and local government web resources and services.